Time,TemperatureF,DewpointF,PressureIn,WindDirection,WindDirectionDegrees,WindSpeedMPH,WindSpeedGustMPH,Humidity,HourlyPrecipIn,Conditions,Clouds,dailyrainin,SoftwareType,DateUTC
2013-06-14 00:02:00,58.7,51.5,29.80,NW,308,0.0,0.0,77,0.00,,CLR,0.15,VWS V14.01,2013-06-14 04:02:00,
2013-06-14 00:07:00,58.6,51.8,29.80,NNW,335,0.0,0.0,78,0.00,,CLR,0.00,VWS V14.01,2013-06-14 04:07:00,
2013-06-14 00:13:00,58.4,51.6,29.80,NNW,333,0.0,0.0,78,0.00,,CLR,0.00,VWS V14.01,2013-06-14 04:13:00,
2013-06-14 00:17:00,58.3,51.5,29.80,NW,308,0.0,0.0,78,0.00,,CLR,0.00,VWS V14.01,2013-06-14 04:17:00,
2013-06-14 00:27:00,58.1,51.6,29.80,NW,326,0.0,0.0,79,0.00,,CLR,0.00,VWS V14.01,2013-06-14 04:27:00,
2013-06-14 00:32:00,58.0,51.5,29.80,NNW,347,0.0,0.0,79,0.00,,CLR,0.00,VWS V14.01,2013-06-14 04:32:00,
2013-06-14 00:37:00,57.8,51.7,29.80,NNW,335,0.0,0.0,80,0.00,,CLR,0.00,VWS V14.01,2013-06-14 04:37:00,
2013-06-14 00:42:00,57.8,51.7,29.80,NNW,340,0.0,0.0,80,0.00,,CLR,0.00,VWS V14.01,2013-06-14 04:42:00,
2013-06-14 00:47:00,57.6,51.5,29.80,NNW,333,0.0,0.0,80,0.00,,CLR,0.00,VWS V14.01,2013-06-14 04:47:00,
2013-06-14 00:52:00,57.6,51.5,29.80,NW,322,0.0,0.0,80,0.00,,CLR,0.00,VWS V14.01,2013-06-14 04:52:00,
2013-06-14 00:57:00,57.5,51.7,29.80,NNE,13,0.0,0.0,81,0.00,,CLR,0.00,VWS V14.01,2013-06-14 04:57:00,
2013-06-14 01:02:00,57.5,51.7,29.80,NNW,342,0.0,0.0,81,0.00,,CLR,0.00,VWS V14.01,2013-06-14 05:02:00,
2013-06-14 01:12:00,57.2,51.8,29.80,NNW,342,0.0,0.0,82,0.00,,CLR,0.00,VWS V14.01,2013-06-14 05:12:00,
2013-06-14 01:17:00,57.2,51.8,29.80,NNW,333,0.0,0.0,82,0.00,,CLR,0.00,VWS V14.01,2013-06-14 05:17:00,
2013-06-14 01:22:00,57.5,51.7,29.80,North,11,0.0,0.0,81,0.00,,CLR,0.00,VWS V14.01,2013-06-14 05:22:00,
2013-06-14 01:27:00,57.3,51.9,29.80,North,11,0.0,0.0,82,0.00,,CLR,0.00,VWS V14.01,2013-06-14 05:27:00,
2013-06-14 01:32:00,57.2,51.8,29.80,NNE,14,0.0,0.0,82,0.00,,CLR,0.00,VWS V14.01,2013-06-14 05:32:00,
2013-06-14 01:37:00,57.0,51.6,29.80,North,11,0.0,0.0,82,0.00,,CLR,0.00,VWS V14.01,2013-06-14 05:37:00,
2013-06-14 01:42:00,57.0,51.6,29.80,North,1,0.0,0.0,82,0.00,,CLR,0.00,VWS V14.01,2013-06-14 05:42:00,
2013-06-14 01:47:00,56.9,51.8,29.80,North,1,0.0,0.0,83,0.00,,CLR,0.00,VWS V14.01,2013-06-14 05:47:00,
2013-06-14 01:52:00,57.0,51.6,29.80,North,1,0.0,0.0,82,0.00,,CLR,0.00,VWS V14.01,2013-06-14 05:52:00,
2013-06-14 01:57:00,56.9,51.8,29.80,NNE,13,0.0,0.0,83,0.00,,CLR,0.00,VWS V14.01,2013-06-14 05:57:00,
2013-06-14 02:02:00,57.0,51.9,29.79,NNE,18,0.0,0.0,83,0.00,,CLR,0.00,VWS V14.01,2013-06-14 06:02:00,
2013-06-14 02:12:00,57.0,51.9,29.79,NNE,28,0.0,0.0,83,0.00,,CLR,0.00,VWS V14.01,2013-06-14 06:12:00,
2013-06-14 02:22:00,56.9,51.8,29.79,NNE,23,0.0,0.0,83,0.00,,CLR,0.00,VWS V14.01,2013-06-14 06:22:00,
2013-06-14 02:27:00,56.7,51.6,29.79,NNE,23,0.0,0.0,83,0.00,,CLR,0.00,VWS V14.01,2013-06-14 06:27:00,
2013-06-14 02:37:00,56.6,51.5,29.79,NE,38,0.0,0.0,83,0.00,,CLR,0.00,VWS V14.01,2013-06-14 06:37:00,
2013-06-14 02:42:00,56.6,51.8,29.79,NE,37,0.0,0.0,84,0.00,,CLR,0.00,VWS V14.01,2013-06-14 06:42:00,
2013-06-14 02:47:00,56.5,51.7,29.79,NE,34,0.0,0.0,84,0.00,,CLR,0.00,VWS V14.01,2013-06-14 06:47:00,
2013-06-14 02:52:00,56.5,51.7,29.79,NE,34,0.0,0.0,84,0.00,,CLR,0.00,VWS V14.01,2013-06-14 06:52:00,
2013-06-14 02:57:00,56.5,51.7,29.79,NE,34,0.0,0.0,84,0.00,,CLR,0.00,VWS V14.01,2013-06-14 06:57:00,
2013-06-14 03:07:00,56.3,51.5,29.79,NNE,32,0.0,0.0,84,0.00,,CLR,0.00,VWS V14.01,2013-06-14 07:07:00,
2013-06-14 03:12:00,56.3,51.5,29.79,NNE,28,0.0,0.0,84,0.00,,CLR,0.00,VWS V14.01,2013-06-14 07:12:00,
2013-06-14 03:17:00,56.3,51.5,29.79,NNE,28,0.0,0.0,84,0.00,,CLR,0.00,VWS V14.01,2013-06-14 07:17:00,
2013-06-14 03:27:00,56.3,51.9,29.79,NNE,13,0.0,0.0,85,0.00,,CLR,0.00,VWS V14.01,2013-06-14 07:27:00,
2013-06-14 03:32:00,56.3,51.5,29.80,NNE,13,0.0,0.0,84,0.00,,CLR,0.00,VWS V14.01,2013-06-14 07:32:00,
2013-06-14 03:37:00,56.3,51.5,29.80,NNE,13,0.0,0.0,84,0.00,,CLR,0.00,VWS V14.01,2013-06-14 07:37:00,
2013-06-14 03:42:00,56.2,51.8,29.80,NNE,13,0.0,0.0,85,0.00,,CLR,0.00,VWS V14.01,2013-06-14 07:42:00,
2013-06-14 03:52:00,56.0,51.6,29.80,NNE,13,0.0,0.0,85,0.00,,CLR,0.00,VWS V14.01,2013-06-14 07:52:00,
2013-06-14 03:57:00,56.0,51.6,29.80,NNE,13,0.0,0.0,85,0.00,,CLR,0.00,VWS V14.01,2013-06-14 07:57:00,
2013-06-14 04:02:00,55.9,51.5,29.80,NNE,13,0.0,0.0,85,0.00,,CLR,0.00,VWS V14.01,2013-06-14 08:02:00,
2013-06-14 04:07:00,55.9,51.8,29.80,NNE,13,0.0,0.0,86,0.00,,CLR,0.00,VWS V14.01,2013-06-14 08:07:00,
2013-06-14 04:12:00,55.9,51.8,29.80,NNE,13,0.0,0.0,86,0.00,,CLR,0.00,VWS V14.01,2013-06-14 08:12:00,
2013-06-14 04:17:00,55.9,51.8,29.81,NNE,13,0.0,0.0,86,0.00,,CLR,0.00,VWS V14.01,2013-06-14 08:17:00,
2013-06-14 04:22:00,55.7,51.6,29.81,NNE,13,0.0,0.0,86,0.00,,CLR,0.00,VWS V14.01,2013-06-14 08:22:00,
2013-06-14 04:27:00,55.7,51.6,29.81,NNE,13,0.0,0.0,86,0.00,,CLR,0.00,VWS V14.01,2013-06-14 08:27:00,
2013-06-14 04:32:00,55.6,51.8,29.81,North,0,0.0,0.0,87,0.00,,CLR,0.00,VWS V14.01,2013-06-14 08:32:00,
2013-06-14 04:37:00,55.4,51.6,29.81,North,0,0.0,0.0,87,0.00,,CLR,0.00,VWS V14.01,2013-06-14 08:37:00,
2013-06-14 04:47:00,55.3,51.5,29.81,North,0,0.0,0.0,87,0.00,,CLR,0.00,VWS V14.01,2013-06-14 08:47:00,
2013-06-14 04:57:00,55.0,51.5,29.81,North,0,0.0,0.0,88,0.00,,CLR,0.00,VWS V14.01,2013-06-14 08:57:00,
2013-06-14 05:02:00,54.8,51.3,29.81,North,359,0.0,0.0,88,0.00,,CLR,0.00,VWS V14.01,2013-06-14 09:02:00,
2013-06-14 05:07:00,54.8,51.3,29.81,North,6,0.0,0.0,88,0.00,,CLR,0.00,VWS V14.01,2013-06-14 09:07:00,
2013-06-14 05:17:00,54.8,51.6,29.81,NNE,14,0.0,0.0,89,0.00,,CLR,0.00,VWS V14.01,2013-06-14 09:17:00,
2013-06-14 05:22:00,54.7,51.5,29.81,NNE,17,0.0,0.0,89,0.00,,CLR,0.00,VWS V14.01,2013-06-14 09:22:00,
2013-06-14 05:27:00,54.7,51.5,29.81,NNE,17,0.0,0.0,89,0.00,,CLR,0.00,VWS V14.01,2013-06-14 09:27:00,
2013-06-14 05:32:00,54.5,51.3,29.81,NNE,17,0.0,0.0,89,0.00,,CLR,0.00,VWS V14.01,2013-06-14 09:32:00,
2013-06-14 05:37:00,54.5,51.3,29.81,NNE,17,0.0,0.0,89,0.00,,CLR,0.00,VWS V14.01,2013-06-14 09:37:00,
2013-06-14 05:47:00,54.4,51.2,29.82,NNE,17,0.0,0.0,89,0.00,,CLR,0.00,VWS V14.01,2013-06-14 09:47:00,
2013-06-14 05:52:00,54.4,51.2,29.82,NNE,17,0.0,0.0,89,0.00,,CLR,0.00,VWS V14.01,2013-06-14 09:52:00,
2013-06-14 05:57:00,54.2,51.0,29.82,NNE,17,0.0,0.0,89,0.00,,CLR,0.00,VWS V14.01,2013-06-14 09:57:00,
2013-06-14 06:02:00,54.2,51.0,29.83,NNE,17,0.0,0.0,89,0.00,,CLR,0.00,VWS V14.01,2013-06-14 10:02:00,
2013-06-14 06:12:00,54.2,51.3,29.83,NNE,17,0.0,0.0,90,0.00,,CLR,0.00,VWS V14.01,2013-06-14 10:12:00,
2013-06-14 06:17:00,54.2,51.3,29.84,NNE,17,0.0,0.0,90,0.00,,CLR,0.00,VWS V14.01,2013-06-14 10:17:00,
2013-06-14 06:22:00,54.4,51.5,29.84,NNE,17,0.0,0.0,90,0.00,,CLR,0.00,VWS V14.01,2013-06-14 10:22:00,
2013-06-14 06:27:00,54.4,51.5,29.84,NNE,17,0.0,0.0,90,0.00,,CLR,0.00,VWS V14.01,2013-06-14 10:27:00,
2013-06-14 06:37:00,54.4,51.5,29.85,NNE,17,0.0,0.0,90,0.00,,CLR,0.00,VWS V14.01,2013-06-14 10:37:00,
2013-06-14 06:42:00,54.4,51.5,29.85,NNE,17,0.0,0.0,90,0.00,,CLR,0.00,VWS V14.01,2013-06-14 10:42:00,
2013-06-14 06:47:00,54.5,51.6,29.85,NNE,14,0.0,0.0,90,0.00,,CLR,0.00,VWS V14.01,2013-06-14 10:47:00,
2013-06-14 06:52:00,54.7,51.8,29.85,NNE,14,0.0,0.0,90,0.00,,CLR,0.00,VWS V14.01,2013-06-14 10:52:00,
2013-06-14 06:57:00,54.8,51.9,29.85,NNE,14,0.0,0.0,90,0.00,,CLR,0.00,VWS V14.01,2013-06-14 10:57:00,
2013-06-14 07:02:00,54.8,51.9,29.86,NNE,14,0.0,0.0,90,0.00,,CLR,0.00,VWS V14.01,2013-06-14 11:02:00,
2013-06-14 07:07:00,55.0,52.1,29.86,NNE,14,0.0,0.0,90,0.00,,CLR,0.00,VWS V14.01,2013-06-14 11:07:00,
2013-06-14 07:12:00,55.3,52.1,29.86,NNE,16,0.0,0.0,89,0.00,,CLR,0.00,VWS V14.01,2013-06-14 11:12:00,
2013-06-14 07:17:00,55.6,52.4,29.86,NNE,16,0.0,0.0,89,0.00,,CLR,0.00,VWS V14.01,2013-06-14 11:17:00,
2013-06-14 07:22:00,55.7,52.5,29.86,NNE,17,0.0,0.0,89,0.00,,CLR,0.00,VWS V14.01,2013-06-14 11:22:00,
2013-06-14 07:27:00,56.0,52.8,29.86,NNE,17,0.0,0.0,89,0.00,,CLR,0.00,VWS V14.01,2013-06-14 11:27:00,
2013-06-14 07:32:00,56.0,52.8,29.87,North,356,0.0,0.0,89,0.00,,CLR,0.00,VWS V14.01,2013-06-14 11:32:00,
2013-06-14 07:42:00,56.6,53.1,29.87,NNE,27,0.0,0.0,88,0.00,,CLR,0.00,VWS V14.01,2013-06-14 11:42:00,
2013-06-14 07:47:00,56.7,53.2,29.87,NE,35,0.0,0.0,88,0.00,,CLR,0.00,VWS V14.01,2013-06-14 11:47:00,
2013-06-14 07:52:00,57.0,53.2,29.87,NE,40,0.0,0.0,87,0.00,,CLR,0.00,VWS V14.01,2013-06-14 11:52:00,
2013-06-14 07:57:00,57.0,53.2,29.87,NE,45,0.0,0.0,87,0.00,,CLR,0.00,VWS V14.01,2013-06-14 11:57:00,
2013-06-14 08:02:00,57.2,53.4,29.85,NE,51,0.0,0.0,87,0.00,,CLR,0.00,VWS V14.01,2013-06-14 12:02:00,
2013-06-14 08:07:00,57.3,53.2,29.85,NE,44,0.0,0.0,86,0.00,,CLR,0.00,VWS V14.01,2013-06-14 12:07:00,
2013-06-14 08:12:00,57.8,53.7,29.85,NE,44,0.0,0.0,86,0.00,,CLR,0.00,VWS V14.01,2013-06-14 12:12:00,
2013-06-14 08:17:00,58.0,53.8,29.86,NE,44,0.0,0.0,86,0.00,,CLR,0.00,VWS V14.01,2013-06-14 12:17:00,
2013-06-14 08:22:00,58.3,53.8,29.86,NE,44,0.0,0.0,85,0.00,,CLR,0.00,VWS V14.01,2013-06-14 12:22:00,
2013-06-14 08:27:00,58.7,53.9,29.86,NE,52,0.0,0.0,84,0.00,,CLR,0.00,VWS V14.01,2013-06-14 12:27:00,
2013-06-14 08:32:00,59.2,54.4,29.87,NE,54,0.0,0.0,84,0.00,,CLR,0.00,VWS V14.01,2013-06-14 12:32:00,
2013-06-14 08:37:00,59.6,54.8,29.87,NE,52,0.0,0.0,84,0.00,,CLR,0.00,VWS V14.01,2013-06-14 12:37:00,
2013-06-14 08:47:00,60.4,54.5,29.88,NE,55,0.0,0.0,81,0.00,,CLR,0.00,VWS V14.01,2013-06-14 12:47:00,
2013-06-14 08:52:00,60.7,54.8,29.88,NE,56,0.0,0.0,81,0.00,,CLR,0.00,VWS V14.01,2013-06-14 12:52:00,
2013-06-14 09:02:00,61.5,54.9,29.89,NE,54,0.0,0.0,79,0.00,,CLR,0.00,VWS V14.01,2013-06-14 13:02:00,
2013-06-14 09:07:00,62.0,55.4,29.89,NE,51,0.0,0.0,79,0.00,,CLR,0.00,VWS V14.01,2013-06-14 13:07:00,
2013-06-14 09:12:00,62.1,55.2,29.89,NE,52,0.0,0.0,78,0.00,,CLR,0.00,VWS V14.01,2013-06-14 13:12:00,
2013-06-14 09:17:00,62.0,55.1,29.90,NE,54,0.0,0.0,78,0.00,,CLR,0.00,VWS V14.01,2013-06-14 13:17:00,
2013-06-14 09:22:00,62.3,55.4,29.90,NE,42,0.0,0.0,78,0.00,,CLR,0.00,VWS V14.01,2013-06-14 13:22:00,
2013-06-14 09:32:00,63.1,55.4,29.90,ENE,61,0.0,0.0,76,0.00,,CLR,0.00,VWS V14.01,2013-06-14 13:32:00,
2013-06-14 09:37:00,63.9,55.8,29.90,ENE,59,0.0,0.0,75,0.00,,CLR,0.00,VWS V14.01,2013-06-14 13:37:00,
2013-06-14 09:42:00,64.7,56.6,29.90,ENE,59,0.0,0.0,75,0.00,,CLR,0.00,VWS V14.01,2013-06-14 13:42:00,
2013-06-14 09:52:00,64.3,55.8,29.90,ENE,61,0.0,0.0,74,0.00,,CLR,0.00,VWS V14.01,2013-06-14 13:52:00,
2013-06-14 10:02:00,65.8,56.9,29.90,ENE,59,0.0,1.0,73,0.00,,CLR,0.00,VWS V14.01,2013-06-14 14:02:00,
2013-06-14 10:12:00,66.9,56.8,29.90,NE,56,1.0,1.0,70,0.00,,CLR,0.00,VWS V14.01,2013-06-14 14:12:00,
2013-06-14 10:17:00,65.8,56.5,29.90,NE,52,0.0,1.0,72,0.00,,CLR,0.00,VWS V14.01,2013-06-14 14:17:00,
2013-06-14 10:22:00,66.1,57.2,29.90,NE,52,0.0,1.0,73,0.00,,CLR,0.00,VWS V14.01,2013-06-14 14:22:00,
2013-06-14 10:27:00,66.9,56.4,29.90,NE,52,0.0,6.0,69,0.00,,CLR,0.00,VWS V14.01,2013-06-14 14:27:00,
2013-06-14 10:32:00,68.6,58.4,29.90,NE,56,0.0,1.0,70,0.00,,CLR,0.00,VWS V14.01,2013-06-14 14:32:00,
2013-06-14 10:42:00,67.4,56.9,29.90,NE,52,0.0,1.0,69,0.00,,CLR,0.00,VWS V14.01,2013-06-14 14:42:00,
2013-06-14 10:47:00,68.6,57.6,29.90,ENE,58,0.0,1.0,68,0.00,,CLR,0.00,VWS V14.01,2013-06-14 14:47:00,
2013-06-14 10:52:00,68.1,57.2,29.90,ENE,59,0.0,1.0,68,0.00,,CLR,0.00,VWS V14.01,2013-06-14 14:52:00,
2013-06-14 10:57:00,68.3,56.9,29.90,ENE,61,0.0,10.0,67,0.00,,CLR,0.00,VWS V14.01,2013-06-14 14:57:00,
2013-06-14 11:02:00,68.3,56.9,29.90,ENE,59,0.0,1.0,67,0.00,,CLR,0.00,VWS V14.01,2013-06-14 15:02:00,
2013-06-14 11:07:00,68.4,57.4,29.90,ENE,62,0.0,0.0,68,0.00,,CLR,0.00,VWS V14.01,2013-06-14 15:07:00,
2013-06-14 11:12:00,70.4,58.5,29.90,ENE,62,0.0,0.0,66,0.00,,CLR,0.00,VWS V14.01,2013-06-14 15:12:00,
2013-06-14 11:17:00,70.3,58.0,29.91,ENE,61,0.0,0.0,65,0.00,,CLR,0.00,VWS V14.01,2013-06-14 15:17:00,
2013-06-14 11:27:00,71.3,57.2,29.91,ENE,62,0.0,0.0,61,0.00,,CLR,0.00,VWS V14.01,2013-06-14 15:27:00,
2013-06-14 11:32:00,71.5,57.8,29.91,ENE,62,0.0,0.0,62,0.00,,CLR,0.00,VWS V14.01,2013-06-14 15:32:00,
2013-06-14 11:37:00,72.8,57.7,29.91,ENE,59,0.0,0.0,59,0.00,,CLR,0.00,VWS V14.01,2013-06-14 15:37:00,
2013-06-14 11:42:00,72.0,57.8,29.91,ENE,59,0.0,0.0,61,0.00,,CLR,0.00,VWS V14.01,2013-06-14 15:42:00,
2013-06-14 11:47:00,70.9,56.8,29.91,NE,45,0.0,0.0,61,0.00,,CLR,0.00,VWS V14.01,2013-06-14 15:47:00,
2013-06-14 11:52:00,70.8,57.2,29.91,NE,45,0.0,0.0,62,0.00,,CLR,0.00,VWS V14.01,2013-06-14 15:52:00,
2013-06-14 11:57:00,72.1,58.4,29.91,NE,45,0.0,0.0,62,0.00,,CLR,0.00,VWS V14.01,2013-06-14 15:57:00,
2013-06-14 12:02:00,72.8,58.1,29.91,NE,48,0.0,0.0,60,0.00,,CLR,0.00,VWS V14.01,2013-06-14 16:02:00,
2013-06-14 12:07:00,72.5,57.4,29.91,ENE,58,0.0,0.0,59,0.00,,CLR,0.00,VWS V14.01,2013-06-14 16:07:00,
2013-06-14 12:12:00,72.8,58.6,29.91,NE,54,0.0,0.0,61,0.00,,CLR,0.00,VWS V14.01,2013-06-14 16:12:00,
2013-06-14 12:17:00,72.3,58.1,29.91,NE,42,0.0,0.0,61,0.00,,CLR,0.00,VWS V14.01,2013-06-14 16:17:00,
2013-06-14 12:22:00,71.3,56.2,29.91,NE,34,0.0,0.0,59,0.00,,CLR,0.00,VWS V14.01,2013-06-14 16:22:00,
2013-06-14 12:32:00,73.0,57.4,29.90,NNE,32,0.0,0.0,58,0.00,,CLR,0.00,VWS V14.01,2013-06-14 16:32:00,
2013-06-14 12:42:00,74.4,55.7,29.90,NE,51,0.0,0.0,52,0.00,,CLR,0.00,VWS V14.01,2013-06-14 16:42:00,
2013-06-14 12:47:00,72.7,56.1,29.89,NE,45,0.0,0.0,56,0.00,,CLR,0.00,VWS V14.01,2013-06-14 16:47:00,
2013-06-14 12:52:00,72.3,55.7,29.89,NE,49,0.0,0.0,56,0.00,,CLR,0.00,VWS V14.01,2013-06-14 16:52:00,
2013-06-14 12:57:00,72.5,56.9,29.89,NE,56,0.0,0.0,58,0.00,,CLR,0.00,VWS V14.01,2013-06-14 16:57:00,
2013-06-14 13:02:00,72.7,57.1,29.89,NE,48,0.0,0.0,58,0.00,,CLR,0.00,VWS V14.01,2013-06-14 17:02:00,
2013-06-14 13:12:00,73.0,55.9,29.89,North,6,0.0,0.0,55,0.00,,CLR,0.00,VWS V14.01,2013-06-14 17:12:00,
2013-06-14 13:17:00,72.3,56.2,29.88,NNW,347,0.0,0.0,57,0.00,,CLR,0.00,VWS V14.01,2013-06-14 17:17:00,
2013-06-14 13:22:00,73.0,56.9,29.88,NE,42,0.0,0.0,57,0.00,,SCT028,0.00,VWS V14.01,2013-06-14 17:22:00,
2013-06-14 13:27:00,73.0,55.9,29.88,NE,49,0.0,0.0,55,0.00,,SCT028,0.00,VWS V14.01,2013-06-14 17:27:00,
2013-06-14 13:32:00,73.0,56.9,29.88,NE,48,0.0,0.0,57,0.00,,SCT028,0.00,VWS V14.01,2013-06-14 17:32:00,
2013-06-14 13:37:00,73.5,56.9,29.88,ENE,58,0.0,0.0,56,0.00,,SCT028,0.00,VWS V14.01,2013-06-14 17:37:00,
2013-06-14 13:42:00,75.3,57.0,29.88,ENE,59,0.0,0.0,53,0.00,,SCT028,0.00,VWS V14.01,2013-06-14 17:42:00,
2013-06-14 13:47:00,74.9,55.6,29.87,ENE,68,0.0,0.0,51,0.00,,SCT028,0.00,VWS V14.01,2013-06-14 17:47:00,
2013-06-14 13:52:00,75.3,54.8,29.87,NE,40,0.0,0.0,49,0.00,,SCT028,0.00,VWS V14.01,2013-06-14 17:52:00,
2013-06-14 14:02:00,73.7,53.9,29.87,ENE,68,0.0,0.0,50,0.00,,SCT028,0.00,VWS V14.01,2013-06-14 18:02:00,
2013-06-14 14:12:00,75.1,54.7,29.87,ENE,58,0.0,0.0,49,0.00,,SCT028,0.00,VWS V14.01,2013-06-14 18:12:00,
2013-06-14 14:17:00,77.0,55.2,29.87,East,82,0.0,0.0,47,0.00,,SCT028,0.00,VWS V14.01,2013-06-14 18:17:00,
2013-06-14 14:27:00,75.4,53.8,29.87,NE,48,0.0,0.0,47,0.00,,FEW036,0.00,VWS V14.01,2013-06-14 18:27:00,
2013-06-14 14:32:00,75.4,53.8,29.88,ENE,68,0.0,0.0,47,0.00,,FEW036,0.00,VWS V14.01,2013-06-14 18:32:00,
2013-06-14 14:37:00,76.8,52.6,29.88,ENE,64,0.0,0.0,43,0.00,,FEW036,0.00,VWS V14.01,2013-06-14 18:37:00,
2013-06-14 14:47:00,78.6,53.6,29.88,ENE,66,0.0,0.0,42,0.00,,FEW036,0.00,VWS V14.01,2013-06-14 18:47:00,
2013-06-14 14:52:00,76.8,55.7,29.88,NW,305,0.0,0.0,48,0.00,,FEW036,0.00,VWS V14.01,2013-06-14 18:52:00,
2013-06-14 15:02:00,74.6,55.3,29.89,West,272,0.0,0.0,51,0.00,,FEW036,0.00,VWS V14.01,2013-06-14 19:02:00,
2013-06-14 15:12:00,77.7,54.1,29.89,NE,44,0.0,0.0,44,0.00,,FEW036,0.00,VWS V14.01,2013-06-14 19:12:00,
2013-06-14 15:17:00,77.7,54.7,29.88,NE,34,0.0,0.0,45,0.00,,FEW036,0.00,VWS V14.01,2013-06-14 19:17:00,
2013-06-14 15:22:00,76.5,54.8,29.88,ENE,61,0.0,0.0,47,0.00,,FEW042,0.00,VWS V14.01,2013-06-14 19:22:00,
2013-06-14 15:32:00,78.8,52.5,29.88,ENE,69,0.0,0.0,40,0.00,,FEW042,0.00,VWS V14.01,2013-06-14 19:32:00,
2013-06-14 15:42:00,76.7,55.5,29.88,NE,49,0.0,0.0,48,0.00,,FEW042,0.00,VWS V14.01,2013-06-14 19:42:00,
2013-06-14 15:52:00,75.4,54.4,29.88,NE,55,0.0,0.0,48,0.00,,FEW042,0.00,VWS V14.01,2013-06-14 19:52:00,
2013-06-14 15:57:00,75.3,54.3,29.88,NE,56,0.0,0.0,48,0.00,,FEW042,0.00,VWS V14.01,2013-06-14 19:57:00,
2013-06-14 16:02:00,74.7,53.7,29.88,NE,56,0.0,0.0,48,0.00,,FEW042,0.00,VWS V14.01,2013-06-14 20:02:00,
2013-06-14 16:07:00,75.3,54.3,29.88,NE,56,0.0,0.0,48,0.00,,FEW042,0.00,VWS V14.01,2013-06-14 20:07:00,
2013-06-14 16:12:00,77.0,54.1,29.88,NE,56,0.0,0.0,45,0.00,,FEW042,0.00,VWS V14.01,2013-06-14 20:12:00,
2013-06-14 16:17:00,77.0,54.1,29.86,NE,56,0.0,0.0,45,0.00,,FEW042,0.00,VWS V14.01,2013-06-14 20:17:00,
2013-06-14 16:27:00,76.8,53.9,29.86,NE,52,0.0,0.0,45,0.00,,FEW047,0.00,VWS V14.01,2013-06-14 20:27:00,
2013-06-14 16:32:00,76.1,52.6,29.87,NE,52,0.0,0.0,44,0.00,,FEW047,0.00,VWS V14.01,2013-06-14 20:32:00,
2013-06-14 16:37:00,76.7,51.9,29.87,NE,52,0.0,0.0,42,0.00,,FEW047,0.00,VWS V14.01,2013-06-14 20:37:00,
2013-06-14 16:42:00,77.4,51.9,29.87,NE,52,0.0,0.0,41,0.00,,FEW047,0.00,VWS V14.01,2013-06-14 20:42:00,
2013-06-14 16:47:00,78.1,53.2,29.86,ENE,61,0.0,0.0,42,0.00,,FEW047,0.00,VWS V14.01,2013-06-14 20:47:00,
2013-06-14 16:52:00,78.6,54.3,29.86,NE,55,1.0,5.0,43,0.00,,FEW047,0.00,VWS V14.01,2013-06-14 20:52:00,
2013-06-14 16:57:00,77.0,54.7,29.86,North,1,2.0,5.0,46,0.00,,FEW047,0.00,VWS V14.01,2013-06-14 20:57:00,
2013-06-14 17:02:00,76.0,54.9,29.87,NNW,330,1.0,2.0,48,0.00,,FEW047,0.00,VWS V14.01,2013-06-14 21:02:00,
2013-06-14 17:12:00,77.4,53.8,29.87,NW,320,0.0,0.0,44,0.00,,FEW047,0.00,VWS V14.01,2013-06-14 21:12:00,
2013-06-14 17:17:00,77.0,55.2,29.86,North,1,0.0,0.0,47,0.00,,FEW047,0.00,VWS V14.01,2013-06-14 21:17:00,
2013-06-14 17:22:00,77.0,53.4,29.86,NNE,21,0.0,0.0,44,0.00,,FEW055,0.00,VWS V14.01,2013-06-14 21:22:00,
2013-06-14 17:27:00,76.8,53.3,29.86,NNE,21,0.0,0.0,44,0.00,,FEW055,0.00,VWS V14.01,2013-06-14 21:27:00,
2013-06-14 17:37:00,76.8,54.5,29.86,North,0,0.0,0.0,46,0.00,,FEW055,0.00,VWS V14.01,2013-06-14 21:37:00,
2013-06-14 17:47:00,77.2,52.4,29.86,NNW,337,0.0,0.0,42,0.00,,FEW055,0.00,VWS V14.01,2013-06-14 21:47:00,
2013-06-14 17:52:00,77.0,52.8,29.86,NNW,337,0.0,0.0,43,0.00,,FEW055,0.00,VWS V14.01,2013-06-14 21:52:00,
2013-06-14 17:57:00,77.7,52.2,29.86,NNW,337,0.0,0.0,41,0.00,,FEW055,0.00,VWS V14.01,2013-06-14 21:57:00,
2013-06-14 18:02:00,77.4,53.2,29.85,North,357,0.0,0.0,43,0.00,,FEW055,0.00,VWS V14.01,2013-06-14 22:02:00,
2013-06-14 18:07:00,77.0,54.1,29.85,NNE,25,0.0,0.0,45,0.00,,FEW055,0.00,VWS V14.01,2013-06-14 22:07:00,
2013-06-14 18:12:00,76.3,54.0,29.85,NNE,17,0.0,0.0,46,0.00,,FEW055,0.00,VWS V14.01,2013-06-14 22:12:00,
2013-06-14 18:17:00,75.6,52.8,29.85,NNE,17,0.0,1.0,45,0.00,,FEW055,0.00,VWS V14.01,2013-06-14 22:17:00,
2013-06-14 18:22:00,76.0,53.2,29.85,NNE,17,0.0,1.0,45,0.00,,CLR,0.00,VWS V14.01,2013-06-14 22:22:00,
2013-06-14 18:27:00,76.3,54.0,29.85,NNE,23,0.0,0.0,46,0.00,,CLR,0.00,VWS V14.01,2013-06-14 22:27:00,
2013-06-14 18:32:00,76.7,52.5,29.85,NNE,24,0.0,0.0,43,0.00,,CLR,0.00,VWS V14.01,2013-06-14 22:32:00,
2013-06-14 18:42:00,78.6,51.6,29.85,NNE,24,0.0,0.0,39,0.00,,CLR,0.00,VWS V14.01,2013-06-14 22:42:00,
2013-06-14 18:47:00,78.8,51.8,29.84,NNE,25,0.0,0.0,39,0.00,,CLR,0.00,VWS V14.01,2013-06-14 22:47:00,
2013-06-14 18:52:00,78.6,51.6,29.84,NNE,31,0.0,0.0,39,0.00,,CLR,0.00,VWS V14.01,2013-06-14 22:52:00,
2013-06-14 19:02:00,78.5,50.8,29.84,NNE,31,0.0,0.0,38,0.00,,CLR,0.00,VWS V14.01,2013-06-14 23:02:00,
2013-06-14 19:07:00,78.1,51.8,29.84,NE,34,0.0,0.0,40,0.00,,CLR,0.00,VWS V14.01,2013-06-14 23:07:00,
2013-06-14 19:12:00,77.9,51.0,29.84,NE,34,0.0,0.0,39,0.00,,CLR,0.00,VWS V14.01,2013-06-14 23:12:00,
2013-06-14 19:22:00,77.6,53.4,29.85,NNE,32,0.0,0.0,43,0.00,,CLR,0.00,VWS V14.01,2013-06-14 23:22:00,
2013-06-14 19:27:00,77.7,52.8,29.85,NNE,32,0.0,0.0,42,0.00,,CLR,0.00,VWS V14.01,2013-06-14 23:27:00,
2013-06-14 19:32:00,77.9,52.3,29.84,NNE,32,0.0,0.0,41,0.00,,CLR,0.00,VWS V14.01,2013-06-14 23:32:00,
2013-06-14 19:42:00,76.8,52.0,29.84,NNE,32,0.0,0.0,42,0.00,,CLR,0.00,VWS V14.01,2013-06-14 23:42:00,
2013-06-14 19:47:00,76.7,52.5,29.85,NNE,32,0.0,0.0,43,0.00,,CLR,0.00,VWS V14.01,2013-06-14 23:47:00,
2013-06-14 19:52:00,76.7,52.5,29.85,NNE,32,0.0,0.0,43,0.00,,CLR,0.00,VWS V14.01,2013-06-14 23:52:00,
2013-06-14 19:57:00,76.5,52.4,29.85,NNE,32,0.0,0.0,43,0.00,,CLR,0.00,VWS V14.01,2013-06-14 23:57:00,
2013-06-14 20:07:00,76.1,52.0,29.84,NNE,32,0.0,0.0,43,0.00,,CLR,0.00,VWS V14.01,2013-06-15 00:07:00,
2013-06-14 20:12:00,76.1,52.6,29.84,NNE,32,0.0,0.0,44,0.00,,CLR,0.00,VWS V14.01,2013-06-15 00:12:00,
2013-06-14 20:17:00,76.0,53.8,29.84,NNE,32,0.0,0.0,46,0.00,,CLR,0.00,VWS V14.01,2013-06-15 00:17:00,
2013-06-14 20:27:00,75.6,52.2,29.84,NNE,32,0.0,0.0,44,0.00,,CLR,0.00,VWS V14.01,2013-06-15 00:27:00,
2013-06-14 20:32:00,75.6,52.8,29.84,NNE,32,0.0,0.0,45,0.00,,CLR,0.00,VWS V14.01,2013-06-15 00:32:00,
2013-06-14 20:37:00,75.6,53.4,29.84,NNE,32,0.0,0.0,46,0.00,,CLR,0.00,VWS V14.01,2013-06-15 00:37:00,
2013-06-14 20:47:00,75.3,57.5,29.84,NNE,32,0.0,2.0,54,0.00,,CLR,0.00,VWS V14.01,2013-06-15 00:47:00,
2013-06-14 20:57:00,72.1,58.8,29.84,NNE,32,0.0,0.0,63,0.00,,CLR,0.00,VWS V14.01,2013-06-15 00:57:00,
2013-06-14 21:07:00,70.8,58.9,29.84,NNE,32,0.0,0.0,66,0.00,,CLR,0.00,VWS V14.01,2013-06-15 01:07:00,
2013-06-14 21:12:00,70.3,59.2,29.84,NNE,32,0.0,0.0,68,0.00,,CLR,0.00,VWS V14.01,2013-06-15 01:12:00,
2013-06-14 21:17:00,69.9,59.3,29.83,NNE,32,0.0,0.0,69,0.00,,CLR,0.00,VWS V14.01,2013-06-15 01:17:00,
2013-06-14 21:22:00,69.3,59.5,29.83,NNE,32,0.0,0.0,71,0.00,,CLR,0.00,VWS V14.01,2013-06-15 01:22:00,
2013-06-14 21:27:00,68.9,59.1,29.83,NNE,32,0.0,0.0,71,0.00,,CLR,0.00,VWS V14.01,2013-06-15 01:27:00,
2013-06-14 21:32:00,68.8,59.4,29.84,NNE,32,0.0,0.0,72,0.00,,CLR,0.00,VWS V14.01,2013-06-15 01:32:00,
2013-06-14 21:42:00,68.4,59.4,29.84,NNE,32,0.0,0.0,73,0.00,,CLR,0.00,VWS V14.01,2013-06-15 01:42:00,
2013-06-14 21:47:00,68.1,59.1,29.84,NNE,32,0.0,0.0,73,0.00,,CLR,0.00,VWS V14.01,2013-06-15 01:47:00,
2013-06-14 21:52:00,67.9,58.9,29.84,NNE,32,0.0,0.0,73,0.00,,CLR,0.00,VWS V14.01,2013-06-15 01:52:00,
2013-06-14 21:57:00,67.9,58.9,29.84,NNE,32,0.0,0.0,73,0.00,,CLR,0.00,VWS V14.01,2013-06-15 01:57:00,
2013-06-14 22:02:00,67.9,58.5,29.84,NNE,32,0.0,0.0,72,0.00,,CLR,0.00,VWS V14.01,2013-06-15 02:02:00,
2013-06-14 22:07:00,67.8,58.8,29.84,NNE,32,0.0,0.0,73,0.00,,CLR,0.00,VWS V14.01,2013-06-15 02:07:00,
2013-06-14 22:12:00,67.4,58.8,29.84,NNE,32,0.0,0.0,74,0.00,,CLR,0.00,VWS V14.01,2013-06-15 02:12:00,
2013-06-14 22:22:00,66.9,59.1,29.85,NNE,32,0.0,0.0,76,0.00,,CLR,0.00,VWS V14.01,2013-06-15 02:22:00,
2013-06-14 22:27:00,66.8,59.0,29.85,NNE,32,1.0,2.0,76,0.00,,CLR,0.00,VWS V14.01,2013-06-15 02:27:00,
2013-06-14 22:32:00,66.8,59.0,29.85,NNE,32,0.0,2.0,76,0.00,,CLR,0.00,VWS V14.01,2013-06-15 02:32:00,
2013-06-14 22:37:00,66.3,58.5,29.85,NNE,32,0.0,3.0,76,0.00,,CLR,0.00,VWS V14.01,2013-06-15 02:37:00,
2013-06-14 22:42:00,66.0,58.2,29.85,NNE,32,0.0,0.0,76,0.00,,CLR,0.00,VWS V14.01,2013-06-15 02:42:00,
2013-06-14 22:47:00,65.6,58.2,29.85,NNE,32,0.0,0.0,77,0.00,,CLR,0.00,VWS V14.01,2013-06-15 02:47:00,
2013-06-14 22:52:00,65.6,58.2,29.85,NNE,32,0.0,0.0,77,0.00,,CLR,0.00,VWS V14.01,2013-06-15 02:52:00,
2013-06-14 23:02:00,65.6,58.6,29.85,NNE,32,0.0,0.0,78,0.00,,CLR,0.00,VWS V14.01,2013-06-15 03:02:00,
2013-06-14 23:07:00,65.8,58.8,29.85,NNE,32,0.0,0.0,78,0.00,,CLR,0.00,VWS V14.01,2013-06-15 03:07:00,
2013-06-14 23:12:00,65.5,58.8,29.85,NNE,32,0.0,0.0,79,0.00,,CLR,0.00,VWS V14.01,2013-06-15 03:12:00,
2013-06-14 23:17:00,65.5,58.8,29.85,NNE,32,0.0,0.0,79,0.00,,CLR,0.00,VWS V14.01,2013-06-15 03:17:00,
2013-06-14 23:22:00,65.5,58.8,29.85,NNE,32,0.0,0.0,79,0.00,,CLR,0.00,VWS V14.01,2013-06-15 03:22:00,
2013-06-14 23:27:00,65.3,58.6,29.85,NNE,32,0.0,0.0,79,0.00,,CLR,0.00,VWS V14.01,2013-06-15 03:27:00,
2013-06-14 23:32:00,65.3,58.6,29.85,NNE,32,0.0,0.0,79,0.00,,CLR,0.00,VWS V14.01,2013-06-15 03:32:00,
2013-06-14 23:37:00,65.2,58.5,29.85,NNE,32,0.0,0.0,79,0.00,,CLR,0.00,VWS V14.01,2013-06-15 03:37:00,
2013-06-14 23:47:00,65.0,58.3,29.86,NNE,32,0.0,0.0,79,0.00,,CLR,0.00,VWS V14.01,2013-06-15 03:47:00,
2013-06-14 23:57:00,64.7,58.4,29.86,NNE,32,0.0,0.0,80,0.00,,CLR,0.00,VWS V14.01,2013-06-15 03:57:00,